Powrót do katalogu

GNOMES-1

AktywnyPogodaSSO
NORAD 46266·PAYLOAD·🇺🇸 United States

Wystrzelony Aug 30, 2020 z Cape Canaveral Space Force Station

Loading…

Następne Przeloty (najbliższe 24 godziny)

TLE

ŚwieżeSource: Space-Track

Epoka: Sep 14, 2026, 10:00 UTC

1 46266U 20059B   26257.41714627  .00001856  00000-0  15092-3 0  9994
2 46266  97.7974 108.0120 0012258  85.7591 274.5033 15.00765143328979

Śledź GNOMES-1 w czasie rzeczywistym z AllMySat

Download on the App Store